Powrót do katalogu

SL-12 DEB

LostHEO
NORAD 29347·DEBRIS·🇷🇺 Russia

Wystrzelony May 31, 1989 z Baikonur Cosmodrome

Loading…

Następne Przeloty (najbliższe 24 godziny)

TLE

NieaktualneSource: Space-Track

Epoka: Feb 27, 2024, 15:12 UTC

1 29347U 89039BE  24058.63347182  .00000036  00000-0  00000-0 0  9996
2 29347  61.8829 198.5271 4680982 107.3934 307.7022  4.62169865294045

Śledź SL-12 DEB w czasie rzeczywistym z AllMySat

Download on the App Store